Date String (YYYY-MM-DD hh:mm:ss) UTC,Instrument flags,absolute air pressure of the measurement (hPa),sample flow rate (lpm),inlet stack bypass flow (lpm),air temperature of the measurement (°C),ambient temperature measured by the external sensor (°C),aerosol sample conditioner tube jacket temperature (°C),OPC LED temperature (°C),internal box temperature (°C),relative humidity of the measurement (%),span deviation,mass concentration of particles derived from Lorenz-Mie calculation of OPC scattering (μg/m³),mass concentration of particles derived from Lorenz-Mie calculation of OPC scattering (μg/m³),mass concentration of particles derived from Lorenz-Mie calculation of OPC scattering (μg/m³)
DateTimeUTC,F1_M11,P_M11,Q1_M11,Q2_M11,T1_M11,T2_M11,T3_M11,T4_M11,T5_M11,U1_M11,ZSPAN_M11,X0_M11,X2_M11,X1_M11
2023-07-15 06:00:00,SystemResetWarning,0836.3,4.99,000.00,029.4,027.0,000.0,037.9,030.8,34.2,0000.0,0009.55,0005.66,0004.85
2023-07-15 06:01:00,SystemResetWarning,0836.2,4.99,000.00,029.4,027.3,000.0,037.9,030.8,34.0,-000.1,0009.77,0005.71,0004.88
2023-07-15 06:02:00,SystemResetWarning,0836.3,5.00,000.00,029.4,027.5,000.0,037.9,030.9,33.9,0000.6,0010.42,0005.74,0004.91
2023-07-15 06:03:00,SystemResetWarning,0836.2,5.00,000.00,029.5,027.7,000.0,037.9,030.9,33.8,0000.5,0010.68,0005.78,0004.94
2023-07-15 06:04:00,SystemResetWarning,0836.2,5.00,000.00,029.5,027.8,000.0,037.9,031.0,33.5,0000.0,0011.44,0005.80,0004.96
2023-07-15 06:05:00,SystemResetWarning,0836.3,5.01,000.00,029.5,028.0,000.0,037.9,031.0,33.6,-000.2,0011.50,0005.84,0004.98
2023-07-15 06:06:00,SystemResetWarning,0836.3,5.01,000.00,029.5,028.1,000.0,038.0,031.1,33.5,-000.9,0011.48,0005.87,0005.01
2023-07-15 06:07:00,SystemResetWarning,0836.2,5.00,000.00,029.6,028.2,000.0,038.0,031.1,33.5,-001.0,0011.65,0005.90,0005.04
2023-07-15 06:08:00,SystemResetWarning,0836.2,5.01,000.00,029.6,028.3,000.0,038.0,031.2,33.4,-001.4,0011.77,0005.94,0005.07
2023-07-15 06:09:00,SystemResetWarning,0836.2,4.99,000.00,029.6,028.3,000.0,038.0,031.2,33.0,-001.9,0012.39,0005.98,0005.10
2023-07-15 06:10:00,SystemResetWarning,0836.2,4.99,000.00,029.7,028.4,000.0,038.0,031.2,33.0,-002.2,0012.47,0006.00,0005.11
2023-07-15 06:11:00,SystemResetWarning,0836.2,5.00,000.00,029.7,028.2,000.0,038.0,031.2,32.5,-001.8,0012.49,0006.00,0005.13
2023-07-15 06:12:00,SystemResetWarning,0836.2,5.00,000.00,029.7,026.5,000.0,037.9,031.0,32.5,-002.0,0012.38,0006.01,0005.15
2023-07-15 06:13:00,SystemResetWarning,0836.1,5.01,000.00,029.6,025.4,000.0,037.8,030.8,32.4,-002.3,0011.67,0006.00,0005.16
2023-07-15 06:14:00,SystemResetWarning,0836.1,5.01,000.00,029.4,025.3,000.0,037.8,030.5,32.5,-001.9,0011.47,0005.98,0005.16
2023-07-15 06:15:00,SystemResetWarning,0836.1,5.01,000.00,029.3,025.6,000.0,037.8,030.4,33.0,-001.8,0011.41,0006.01,0005.17
2023-07-15 06:16:00,SystemResetWarning,0836.2,5.00,000.00,029.3,026.0,000.0,037.8,030.5,33.3,-001.2,0013.11,0006.00,0005.18
2023-07-15 06:17:00,SystemResetWarning,0836.1,5.00,000.00,029.3,026.4,000.0,037.8,030.6,33.6,-000.8,0014.11,0006.00,0005.19
2023-07-15 06:18:00,SystemResetWarning,0836.1,4.99,000.00,029.3,026.8,000.0,037.8,030.7,33.2,-000.1,0014.36,0006.02,0005.18
2023-07-15 06:19:00,SystemResetWarning,0836.1,5.01,000.00,029.3,027.1,000.0,037.9,030.7,33.4,-000.6,0014.14,0006.04,0005.18
2023-07-15 06:20:00,SystemResetWarning,0836.1,5.00,000.00,029.3,027.3,000.0,037.9,030.8,33.4,0000.0,0013.77,0006.06,0005.17
2023-07-15 06:21:00,SystemResetWarning,0836.1,4.99,000.00,029.3,027.5,000.0,037.9,030.9,33.6,0000.0,0013.60,0006.04,0005.16
2023-07-15 06:22:00,SystemResetWarning,0836.1,5.00,000.00,029.4,027.7,000.0,037.9,030.9,33.5,0000.0,0013.59,0006.01,0005.14
2023-07-15 06:23:00,SystemResetWarning,0836.1,4.99,000.00,029.4,027.9,000.0,037.9,031.0,33.3,0000.0,0014.22,0005.97,0005.11
2023-07-15 06:24:00,SystemResetWarning,0836.2,5.00,000.00,029.4,028.0,000.0,037.9,031.0,33.1,0000.0,0014.63,0005.97,0005.09
2023-07-15 06:25:00,SystemResetWarning,0836.1,5.00,000.00,029.5,028.1,000.0,037.9,031.0,33.0,0000.0,0014.95,0005.98,0005.08
2023-07-15 06:26:00,SystemResetWarning,0836.1,5.00,000.00,029.5,028.2,000.0,037.9,031.1,32.5,-000.2,0014.64,0005.96,0005.07
2023-07-15 06:27:00,SystemResetWarning,0836.1,5.00,000.00,029.5,028.2,000.0,037.9,031.1,32.2,-000.3,0013.20,0005.95,0005.04
2023-07-15 06:28:00,SystemResetWarning,0836.1,5.00,000.00,029.6,028.3,000.0,037.9,031.2,32.2,-000.1,0012.31,0005.96,0005.02
2023-07-15 06:29:00,SystemResetWarning,0836.2,5.00,000.00,029.6,028.4,000.0,038.0,031.2,32.5,-000.0,0012.28,0005.91,0005.00
2023-07-15 06:30:00,SystemResetWarning,0836.2,5.00,000.00,029.6,028.4,000.0,038.0,031.2,32.9,0000.3,0012.28,0005.91,0004.98
2023-07-15 06:31:00,SystemResetWarning,0836.2,4.99,000.00,029.6,027.9,000.0,037.9,031.2,33.0,0000.2,0012.57,0005.90,0004.97
2023-07-15 06:32:00,SystemResetWarning,0836.1,4.99,000.00,029.6,026.1,000.0,037.8,030.9,32.9,0000.2,0013.52,0005.91,0004.97
2023-07-15 06:33:00,SystemResetWarning,0836.1,5.00,000.00,029.5,025.3,000.0,037.8,030.7,32.9,0000.6,0014.03,0005.94,0004.97
2023-07-15 06:34:00,SystemResetWarning,0836.1,5.01,000.00,029.4,025.4,000.0,037.8,030.4,33.0,0000.0,0013.35,0005.95,0004.95
2023-07-15 06:35:00,SystemResetWarning,0836.1,5.01,000.00,029.3,025.7,000.0,037.8,030.4,33.2,0000.0,0013.12,0005.91,0004.94
2023-07-15 06:36:00,SystemResetWarning,0836.1,4.99,000.00,029.3,026.1,000.0,037.8,030.5,33.1,0000.7,0013.10,0005.87,0004.91
2023-07-15 06:37:00,SystemResetWarning,0836.1,5.00,000.00,029.3,026.5,000.0,037.8,030.6,33.0,0001.2,0013.99,0005.85,0004.88
2023-07-15 06:38:00,SystemResetWarning,0836.1,5.01,000.00,029.3,026.8,000.0,037.8,030.7,33.0,0000.6,0013.83,0005.80,0004.87
2023-07-15 06:39:00,SystemResetWarning,0836.1,5.01,000.00,029.3,027.1,000.0,037.8,030.7,32.8,0000.4,0013.75,0005.79,0004.86
2023-07-15 06:40:00,SystemResetWarning,0836.1,4.98,000.00,029.3,027.4,000.0,037.8,030.8,32.8,0001.5,0014.39,0005.82,0004.87
2023-07-15 06:41:00,SystemResetWarning,0836.1,5.01,000.00,029.3,027.6,000.0,037.8,030.9,33.1,0001.2,0014.83,0005.80,0004.88
2023-07-15 06:42:00,SystemResetWarning,0836.1,5.01,000.00,029.3,027.7,000.0,037.8,030.9,33.8,0001.0,0015.35,0005.82,0004.90
2023-07-15 06:43:00,SystemResetWarning,0836.1,5.00,000.00,029.4,027.9,000.0,037.8,030.9,34.1,0001.3,0014.63,0005.82,0004.90
2023-07-15 06:44:00,SystemResetWarning,0836.1,4.99,000.00,029.4,028.0,000.0,037.8,031.0,34.2,0001.1,0013.99,0005.79,0004.90
2023-07-15 06:45:00,SystemResetWarning,0836.1,4.99,000.00,029.4,028.1,000.0,037.9,031.0,33.7,0001.6,0014.02,0005.79,0004.91
2023-07-15 06:46:00,SystemResetWarning,0836.0,5.00,000.00,029.5,028.2,000.0,037.9,031.1,33.5,0001.3,0013.89,0005.80,0004.92
2023-07-15 06:47:00,SystemResetWarning,0835.9,5.00,000.00,029.5,028.3,000.0,037.9,031.1,33.5,0000.5,0014.29,0005.86,0004.94
2023-07-15 06:48:00,SystemResetWarning,0835.9,5.01,000.00,029.5,028.3,000.0,037.9,031.2,33.3,-000.1,0013.68,0005.91,0004.97
2023-07-15 06:49:00,SystemResetWarning,0835.9,5.00,000.00,029.5,028.4,000.0,037.9,031.2,33.1,0000.1,0013.74,0005.96,0004.98
2023-07-15 06:50:00,SystemResetWarning,0835.9,4.98,000.00,029.6,028.4,000.0,038.0,031.2,32.9,-000.2,0013.90,0006.01,0004.99
2023-07-15 06:51:00,SystemResetWarning,0835.9,5.01,000.00,029.6,028.5,000.0,038.0,031.2,32.9,0000.3,0013.72,0006.01,0004.97
2023-07-15 06:52:00,SystemResetWarning,0835.8,5.00,000.00,029.6,028.3,000.0,038.0,031.3,32.9,0000.5,0013.26,0006.01,0004.97
2023-07-15 06:53:00,SystemResetWarning,0835.8,4.98,000.00,029.6,026.6,000.0,037.9,031.0,33.0,0000.2,0012.42,0006.02,0004.99
2023-07-15 06:54:00,SystemResetWarning,0835.8,5.01,000.00,029.5,025.5,000.0,037.8,030.8,33.2,-000.0,0012.11,0006.01,0005.00
2023-07-15 06:55:00,SystemResetWarning,0835.7,5.01,000.00,029.4,025.3,000.0,037.8,030.5,33.5,0000.2,0012.50,0006.05,0005.02
2023-07-15 06:56:00,SystemResetWarning,0835.7,5.00,000.00,029.3,025.6,000.0,037.8,030.4,33.8,-000.1,0012.55,0006.07,0005.04
2023-07-15 06:57:00,SystemResetWarning,0835.8,5.01,000.00,029.2,026.0,000.0,037.8,030.5,33.9,-000.3,0012.54,0006.11,0005.08
2023-07-15 06:58:00,SystemResetWarning,0835.8,5.01,000.00,029.2,026.4,000.0,037.8,030.6,34.0,0000.0,0012.36,0006.11,0005.10
2023-07-15 06:59:00,SystemResetWarning,0835.8,4.99,000.00,029.2,026.7,000.0,037.8,030.7,34.0,0000.0,0011.49,0006.13,0005.12
